Location: Leipzig
(51.3397°N, 12.3731°E)
Time: 18:05:32
(UTC+01:00)

ARIANE 6 FM1 Upper Stage - Pass Details

Date: 17 December 2025
Orbit: 522 x 610 km, 62.0° (Epoch: 19 January)

Event Time Altitude Azimuth Distance (km) Brightness Sun altitude
Rises 05:55:27 0° 205° (SSW) 2,686 6.0 -19.7°
Reaches altitude 10° 05:57:45 10° 198° (SSW) 1,786 5.2 -19.4°
Maximum altitude 06:01:30 40° 128° (SE) 793 3.9 -18.8°
Drops below altitude 10° 06:05:13 10° 59° (ENE) 1,771 5.8 -18.2°
Sets 06:07:29 0° 52° (NE) 2,660 6.6 -17.9°
